Weather History for Kokomo, IN

Change the Weather History Date:

Monday, September 16, 2013

  Actual Average (KGUS) Record (KGUS)
Temperature  
Mean Temperature 55 °F -  
Max Temperature 62 °F 74 °F 86 °F (1997)
Min Temperature 48 °F 53 °F 42 °F (2011)
Degree Days  
Heating Degree Days 10    
Growing Degree Days 5 (Base 50)    
Moisture  
Dew Point 51 °F    
Average Humidity 82    
Maximum Humidity 88    
Minimum Humidity 63    
Precipitation  
Precipitation 0.00 in - - ()
Sea Level Pressure  
Sea Level Pressure 30.24 in    
Wind  
Wind Speed 6 mph (ENE)    
Max Wind Speed 12 mph    
Max Gust Speed -    
Visibility 8 miles    
Events      
Averages and records for this station are not official NWS values.
T = Trace of Precipitation, MM = Missing Value Source: NWS Daily Summary

Daily Weather History Graph

Daily Weather History Graph

Search for Another Location

Airport:

Trip Planner

Search our weather history database for the weather conditions in past years. The results will help you decide how hot, cold, wet, or windy it might be!

Date:

Astronomy

Sep. 16, 2013 Rise Set
Actual Time 6:26 AM CDT 6:51 PM CDT
Civil Twilight 5:58 AM CDT 7:18 PM CDT
Nautical Twilight 5:26 AM CDT 7:50 PM CDT
Astronomical Twilight 4:53 AM CDT 8:23 PM CDT
Moon 5:00 PM CDT (9/16) 3:11 AM CDT (9/16)
Length of Visible Light 13h 19m
Length of Day
12h 24m
Waxing Gibbous, 90% of the Moon is Illuminated
Sep 16
Waxing Gibbous
Sep 19
Full
Sep 26
Last Quarter
Oct 4
New
Oct 11
First Quarter

Hourly Weather History & Observations

Time (CDT) Temp. Dew Point Humidity Pressure Visibility Wind Dir Wind Speed Gust Speed Precip Events Conditions
12:15 AM 57.2 °F 53.6 °F 88% 30.11 in 2.5 mi East 5.8 mph - N/A   Overcast
12:35 AM 57.2 °F 53.6 °F 88% 30.11 in 3.0 mi ESE 4.6 mph - N/A   Overcast
12:55 AM 57.2 °F 53.6 °F 88% 30.11 in 2.5 mi SE 4.6 mph - N/A   Overcast
1:15 AM 57.2 °F 53.6 °F 88% 30.13 in 3.0 mi ESE 3.5 mph - N/A   Overcast
1:35 AM 57.2 °F 53.6 °F 88% 30.13 in 4.0 mi ENE 5.8 mph - N/A   Overcast
1:55 AM 57.2 °F 53.6 °F 88% 30.13 in 5.0 mi East 3.5 mph - N/A   Overcast
2:15 AM 57.2 °F 53.6 °F 88% 30.14 in 5.0 mi Calm Calm - N/A   Overcast
2:35 AM 57.2 °F 53.6 °F 88% 30.14 in 5.0 mi Calm Calm - N/A   Overcast
2:55 AM 57.2 °F 53.6 °F 88% 30.14 in 5.0 mi NE 4.6 mph - N/A   Overcast
3:15 AM 57.2 °F 53.6 °F 88% 30.15 in 5.0 mi NE 5.8 mph - N/A   Overcast
3:35 AM 57.2 °F 53.6 °F 88% 30.15 in 4.0 mi NE 5.8 mph - N/A   Overcast
3:55 AM 57.2 °F 53.6 °F 88% 30.16 in 5.0 mi NE 6.9 mph - N/A   Overcast
4:15 AM 57.2 °F 53.6 °F 88% 30.17 in 5.0 mi NE 5.8 mph - N/A   Overcast
4:35 AM 57.2 °F 53.6 °F 88% 30.17 in 5.0 mi NE 6.9 mph - N/A   Overcast
4:55 AM 57.2 °F 53.6 °F 88% 30.17 in 5.0 mi NE 5.8 mph - N/A   Overcast
5:15 AM 57.2 °F 53.6 °F 88% 30.18 in 5.0 mi NE 5.8 mph - N/A   Overcast
5:35 AM 57.2 °F 53.6 °F 88% 30.18 in 5.0 mi NE 4.6 mph - N/A   Overcast
5:55 AM 57.2 °F 53.6 °F 88% 30.20 in 5.0 mi NE 5.8 mph - N/A   Overcast
6:15 AM 57.2 °F 53.6 °F 88% 30.20 in 5.0 mi NE 5.8 mph - N/A   Overcast
6:35 AM 57.2 °F 53.6 °F 88% 30.21 in 3.0 mi NE 4.6 mph - N/A   Overcast
6:55 AM 55.4 °F 51.8 °F 88% 30.22 in 2.0 mi NNE 4.6 mph - N/A   Mostly Cloudy
7:15 AM 55.4 °F 51.8 °F 88% 30.23 in 2.5 mi NE 4.6 mph - N/A   Partly Cloudy
7:35 AM 57.2 °F 53.6 °F 88% 30.24 in 3.0 mi NE 4.6 mph - N/A   Partly Cloudy
7:55 AM 57.2 °F 53.6 °F 88% 30.24 in 5.0 mi NE 8.1 mph - N/A   Mostly Cloudy
8:15 AM 57.2 °F 53.6 °F 88% 30.25 in 7.0 mi NE 6.9 mph - N/A   Overcast
8:35 AM 57.2 °F 53.6 °F 88% 30.26 in 8.0 mi NE 8.1 mph - N/A   Overcast
8:55 AM 57.2 °F 53.6 °F 88% 30.26 in 9.0 mi NE 9.2 mph - N/A   Overcast
9:15 AM 57.2 °F 53.6 °F 88% 30.27 in 10.0 mi NE 9.2 mph - N/A   Overcast
9:35 AM 57.2 °F 51.8 °F 82% 30.28 in 10.0 mi NE 10.4 mph - N/A   Overcast
9:55 AM 57.2 °F 51.8 °F 82% 30.29 in 10.0 mi ENE 8.1 mph - N/A   Overcast
10:15 AM 59.0 °F 51.8 °F 77% 30.29 in 10.0 mi NE 11.5 mph - N/A   Overcast
10:35 AM 59.0 °F 51.8 °F 77% 30.30 in 10.0 mi ENE 11.5 mph - N/A   Overcast
10:55 AM 60.8 °F 51.8 °F 72% 30.30 in 10.0 mi ENE 10.4 mph - N/A   Overcast
11:15 AM 60.8 °F 51.8 °F 72% 30.30 in 10.0 mi ENE 8.1 mph - N/A   Overcast
11:35 AM 60.8 °F 51.8 °F 72% 30.30 in 10.0 mi East 6.9 mph - N/A   Overcast
11:55 AM 62.6 °F 51.8 °F 68% 30.30 in 10.0 mi ENE 6.9 mph - N/A   Overcast
12:15 PM 62.6 °F 51.8 °F 68% 30.29 in 10.0 mi ENE 9.2 mph - N/A   Overcast
12:35 PM 62.6 °F 51.8 °F 68% 30.30 in 10.0 mi East 6.9 mph - N/A   Overcast
12:55 PM 62.6 °F 51.8 °F 68% 30.30 in 10.0 mi East 6.9 mph - N/A   Overcast
1:15 PM 62.6 °F 51.8 °F 68% 30.29 in 10.0 mi East 4.6 mph - N/A   Overcast
1:35 PM - - N/A% 30.28 in 10.0 mi NE 6.9 mph - N/A   Overcast
1:55 PM - - N/A% 30.29 in 10.0 mi NE 8.1 mph - N/A   Overcast
2:15 PM - - N/A% 30.28 in 10.0 mi NE 9.2 mph - N/A   Overcast
2:35 PM - - N/A% 30.28 in 10.0 mi NNE 10.4 mph - N/A   Overcast
2:55 PM - - N/A% 30.28 in 10.0 mi ENE 9.2 mph - N/A   Overcast
3:15 PM - - N/A% 30.28 in 10.0 mi ENE 10.4 mph - N/A   Overcast
3:35 PM - - N/A% 30.27 in 10.0 mi ENE 9.2 mph - N/A   Overcast
3:55 PM - - N/A% 30.27 in 10.0 mi ENE 10.4 mph - N/A   Overcast
4:15 PM - - N/A% 30.26 in 10.0 mi NE 5.8 mph - N/A   Overcast
4:35 PM - - N/A% 30.27 in 10.0 mi NE 6.9 mph - N/A   Overcast
4:55 PM - - N/A% 30.27 in 10.0 mi East 6.9 mph - N/A   Overcast
5:15 PM 62.6 °F 50.0 °F 63% 30.27 in 10.0 mi East 6.9 mph - N/A   Overcast
5:35 PM 62.6 °F 50.0 °F 63% 30.28 in 10.0 mi East 8.1 mph - N/A   Overcast
5:55 PM 62.6 °F 50.0 °F 63% 30.28 in 10.0 mi East 8.1 mph - N/A   Overcast
6:15 PM 60.8 °F 48.2 °F 63% 30.28 in 10.0 mi East 4.6 mph - N/A   Scattered Clouds
6:35 PM 59.0 °F 50.0 °F 72% 30.28 in 10.0 mi Calm Calm - N/A   Partly Cloudy
6:55 PM 57.2 °F 48.2 °F 72% 30.27 in 10.0 mi Calm Calm - N/A   Partly Cloudy
7:15 PM 57.2 °F 50.0 °F 77% 30.27 in 10.0 mi Calm Calm - N/A   Clear
7:35 PM 53.6 °F 48.2 °F 82% 30.28 in 10.0 mi Calm Calm - N/A   Clear
7:55 PM 53.6 °F 48.2 °F 82% 30.28 in 10.0 mi Calm Calm - N/A   Clear
8:15 PM 53.6 °F 48.2 °F 82% 30.28 in 10.0 mi Calm Calm - N/A   Clear
8:35 PM 51.8 °F 46.4 °F 82% 30.29 in 10.0 mi Calm Calm - N/A   Clear
8:55 PM 51.8 °F 46.4 °F 82% 30.29 in 10.0 mi Calm Calm - N/A   Clear
9:15 PM 51.8 °F 46.4 °F 82% 30.29 in 10.0 mi Calm Calm - N/A   Clear
9:35 PM 51.8 °F 46.4 °F 82% 30.29 in 10.0 mi Calm Calm - N/A   Clear
9:55 PM 48.2 °F 44.6 °F 87% 30.29 in 10.0 mi Calm Calm - N/A   Clear
10:15 PM 48.2 °F 44.6 °F 87% 30.29 in 10.0 mi East 4.6 mph - N/A   Clear
10:35 PM 50.0 °F 46.4 °F 87% 30.30 in 10.0 mi ENE 4.6 mph - N/A   Clear
10:55 PM 48.2 °F 44.6 °F 87% 30.30 in 10.0 mi ENE 5.8 mph - N/A   Clear
11:15 PM 48.2 °F 44.6 °F 87% 30.30 in 10.0 mi ENE 8.1 mph - N/A   Clear
11:35 PM 48.2 °F 44.6 °F 87% 30.30 in 10.0 mi East 8.1 mph - N/A   Clear
11:55 PM 50.0 °F 44.6 °F 82% 30.31 in 10.0 mi ENE 6.9 mph - N/A   Clear